星链-1978 (STARLINK-1978 )

导读 | 豆包AI

STARLINK-1978是美国太空探索技术公司(SpaceX)星链星座的一员,于2021年2月4日发射入轨。星链星座旨在构建全球卫星互联网系统,该卫星承担为全球偏远地区、海洋空域提供低延迟互联网接入服务的任务,运行在近地轨道,是SpaceX大规模星座组网部署中的一颗标准卫星。

Basic Information
目录编号:
47576
目录名称:
STARLINK-1978
国际标识:
2021-009AE
轨道中心:
EARTH
卫星名称:
星链-1978
卫星全名:
星链-1978 (STARLINK-1978 )
卫星状态:
已陨落 最后检测时间 2026-02-12
发射日期:
2021-02-04 UTC
国别 :
美国 (US)
星等 :
--
Orbit Information
数据来源 国际轨道数据
星历时间: 2026-02-13T04:31:15+0800
轨道信息已过期29天
半长轴: 6527.89km
偏心率: 0.0002826
轨道倾角: 53.019°
近地点辐角 246.763°
升交点赤经 26.119°
平近点角 113.312°
近地点: 147.908km
远地点: 151.598km
周期: 87.482分钟
每日圈数: 16.460521
Detailed Information
固有亮度:
5
最大亮度:
2.5
卫星平台:
Starlink V1.0
覆盖范围:
全球
运营商:
太空探索技术公司
运营商所在国:
美国
制造商(研发单位):
太空探索技术公司
制造商所在国:
美国
使用方式:
暂无
Satellite Introduction
星链(Starlink)计划是由太空探索技术公司(SpaceX)提出的一个巨型低轨卫星互联网星座项目,计划在2019年至2024年间在太空搭建由约1.2万颗卫星组成的“星链”网络,其中1584颗将部署在地球上空550千米处的近地轨道,并从2020年开始工作。该卫星仍在工作。